RH
22 26 20 21 29 28 26 27 30 40 52 55 57 51 54 38 35 34 35 32 28 25 19 16 15 15 15 22 25 33 36 25 19 22 24 24 24 26 28 31 32 33 32 38
22 26 22 25 29 27 24 29 29 38 70 83 62 36 38 37 39 42 42 37 34 30 23 18 16 21 30 36 41 42 41 28 23 24 25 26 26 25 26 27 30 38 44 47
24 24 23 25 30 30 25 29 25 30 42 82 69 41 42 44 49 42 39 41 37 34 32 31 34 38 38 32 44 52 51 40 24 24 25 19 19 18 18 20 21 25 30 31
22 22 22 22 23 26 25 26 26 28 44 71 52 47 42 60 58 41 38 39 36 31 27 28 34 37 36 43 45 61 58 50 39 35 32 21 19 16 16 19 21 23 30 38
20 22 22 21 21 24 27 28 27 28 58 61 56 40 90 72 57 47 38 35 33 30 31 36 37 38 43 54 76 67 61 51 42 38 32 24 19 17 19 23 26 30 36 48
19 20 20 23 26 28 38 41 27 32 66 54 80 41 100 100 84 53 48 43 40 39 37 36 37 46 61 93 78 66 62 55 49 50 33 22 16 18 22 26 27 31 41 48
20 21 23 28 41 49 48 40 42 76 73 62 77 58 87 83 79 68 55 46 46 46 46 46 50 72 89 78 66 64 71 71 71 52 50 32 16 18 22 26 30 34 52 62
34 37 38 42 56 54 49 51 99 85 67 76 82 87 83 72 66 65 62 57 53 51 51 59 71 86 75 76 70 72 68 84 79 70 37 18 18 21 21 26 31 45 59 70
58 59 64 65 65 59 56 88 99 81 73 75 86 88 85 80 75 76 76 65 59 62 68 95 98 83 83 74 60 57 58 70 74 57 38 20 20 20 22 29 40 59 87 90
64 71 81 92 94 93 97 100 100 100 93 84 81 77 62 57 71 86 87 72 71 68 78 91 82 72 67 69 76 63 68 81 62 65 37 20 22 27 32 38 47 71 71 100
67 72 90 100 100 100 100 100 100 100 99 96 76 58 64 75 86 95 73 72 77 76 75 82 76 73 78 91 83 58 60 74 80 60 34 24 27 24 33 50 66 100 100 90
88 62 62 83 100 100 100 100 100 100 100 87 75 66 88 95 89 78 80 81 83 75 78 79 77 76 88 70 62 52 55 69 39 31 25 23 22 30 41 49 86 100 79 93
73 73 69 68 83 100 100 100 100 100 100 91 94 94 97 95 100 82 76 74 77 67 77 80 68 66 72 72 72 71 67 46 29 27 22 23 26 49 53 64 100 96 73 95
49 54 64 72 74 84 94 100 100 100 100 100 96 100 100 100 98 90 83 80 70 82 87 73 62 78 75 77 76 73 63 45 33 26 25 24 36 41 48 77 100 93 100 74
65 57 53 61 66 69 74 81 78 78 86 89 91 97 100 100 99 94 70 63 79 77 64 63 70 62 65 64 65 57 54 45 32 28 27 25 43 50 58 98 80 97 100 48
100 100 92 85 72 73 74 68 70 76 87 98 100 100 100 100 100 99 75 71 72 63 68 79 78 77 70 61 50 49 61 43 38 31 28 29 47 49 75 100 100 88 65 20
100 100 100 100 98 100 89 92 100 100 100 100 100 100 100 100 95 100 67 79 74 77 72 81 72 65 64 59 56 56 49 44 40 36 26 33 42 59 95 100 98 90 38 13
100 100 100 100 100 100 100 100 100 100 100 100 100 100 100 100 99 100 100 73 79 83 79 75 76 67 58 64 60 56 77 60 39 23 29 40 69 84 100 99 74 55 23 13
100 100 100 100 100 100 100 100 100 100 100 100 100 100 94 99 100 100 100 100 100 95 91 94 80 74 67 66 62 90 80 76 38 27 38 68 75 100 79 97 33 22 16 15
100 100 100 100 100 100 100 100 100 100 100 100 100 100 100 95 98 100 100 100 100 100 100 76 80 89 72 77 91 90 77 47 26 34 54 73 100 100 100 68 18 14 15 15
100 100 100 100 100 100 100 100 100 100 100 100 100 100 100 100 100 100 100 100 100 100 84 91 100 99 100 100 89 72 39 27 34 48 78 99 100 90 88 40 16 14 17 13
100 100 100 100 100 100 100 100 100 100 100 100 100 100 100 100 100 99 100 99 100 100 100 100 100 99 88 86 82 47 31 37 49 63 100 100 82 90 51 18 15 17 16 14
100 100 100 100 100 100 100 100 100 100 100 100 100 100 100 100 100 100 100 100 100 100 100 95 96 91 88 88 61 33 35 51 91 100 100 97 91 83 14 14 19 17 15 14
97 98 100 100 100 100 100 100 100 100 100 100 100 100 100 100 100 100 100 100 100 100 86 93 96 89 78 58 33 33 54 100 100 100 95 94 70 23 13 16 19 15 15 14
100 100 99 100 100 100 100 100 100 100 100 100 100 100 100 100 100 100 100 100 100 96 79 75 70 58 43 43 44 72 100 100 100 87 94 89 21 15 15 17 17 15 15 14
72 90 91 89 100 100 100 100 100 100 100 100 100 100 100 100 99 97 91 83 75 60 50 58 66 60 78 74 82 100 100 99 94 93 72 34 15 16 20 17 15 16 15 15
Wind_Speed
42 40 40 33 33 33 34 33 32 29 31 33 31 31 30 24 24 25 25 24 24 25 26 27 26 26 30 35 38 40 44 42 41 41 42 44 45 44 47 49 46 51 55 57
44 44 40 38 38 37 37 36 35 29 31 30 29 32 27 29 28 27 28 28 29 29 30 30 29 32 36 38 42 42 46 45 46 45 47 48 51 52 53 54 56 60 56 58
46 44 43 42 42 41 41 40 38 34 35 33 32 33 32 33 32 31 32 31 33 33 36 36 37 40 42 46 48 48 50 48 49 51 53 54 58 61 65 68 77 68 68 73
45 45 47 46 46 46 45 45 43 40 40 36 34 32 36 36 36 34 33 34 35 39 40 42 44 47 49 51 54 57 57 56 55 59 63 65 69 72 76 78 81 82 84 82
47 47 48 48 47 48 48 48 47 46 42 35 37 35 44 40 41 39 39 40 41 45 46 48 50 51 54 55 60 62 63 64 64 69 70 74 75 77 77 82 87 87 90 92
48 47 48 48 48 50 49 50 51 49 44 37 44 39 43 48 46 45 44 45 48 51 53 54 55 56 58 61 66 67 69 71 72 76 79 80 79 81 85 89 95 97 102 101
48 48 50 50 51 51 53 54 53 49 46 43 44 43 43 51 53 52 52 51 54 56 58 58 59 60 63 67 69 72 76 76 80 82 88 90 86 88 94 102 100 108 110 115
48 50 53 55 55 55 55 56 53 51 49 43 44 43 48 54 56 59 60 60 61 63 66 63 63 66 69 72 75 77 81 83 86 92 93 91 91 91 102 108 115 115 115 114
55 55 57 58 60 60 59 58 59 56 54 53 52 50 54 61 64 67 67 67 68 69 69 66 69 73 75 77 79 80 83 87 90 93 99 97 99 100 108 115 119 116 119 122
59 61 62 63 64 63 62 62 62 63 61 60 58 59 61 65 69 71 72 72 73 75 72 73 76 79 80 81 83 84 87 92 96 99 101 100 103 107 114 119 122 124 129 134
68 66 63 64 62 63 63 64 69 72 70 69 66 63 67 71 75 78 78 78 80 81 80 80 83 84 84 84 85 90 92 94 98 102 104 105 107 115 120 125 131 130 133 144
76 73 69 69 68 69 70 71 75 79 77 76 74 66 75 78 83 84 83 83 85 86 86 86 86 86 87 88 90 94 94 97 101 102 105 111 115 121 129 130 133 132 147 138
84 80 78 74 73 75 78 79 82 84 85 81 83 77 82 86 89 88 89 89 89 91 91 89 89 89 91 92 95 95 97 101 105 109 113 117 126 126 132 130 137 149 150 150
89 88 85 83 84 84 84 85 88 91 89 88 85 87 89 92 94 94 93 94 94 91 92 92 91 92 95 96 96 100 103 106 112 115 117 121 128 131 135 133 143 151 151 160
91 88 89 90 91 90 90 90 93 94 93 95 89 91 93 95 97 97 99 98 92 94 94 95 96 99 100 100 102 105 107 111 116 119 120 130 131 136 137 138 149 154 159 156
93 94 93 92 93 92 92 92 95 95 95 95 93 92 92 94 95 97 98 95 94 96 98 97 97 99 101 103 108 110 113 116 119 121 128 132 137 139 141 144 159 163 157 131
98 95 97 98 97 98 97 93 94 93 94 95 95 93 96 99 98 93 100 97 98 97 98 95 100 104 106 109 113 115 116 122 123 126 133 137 140 144 144 155 161 166 148 115
104 98 99 99 97 102 96 94 92 91 91 93 95 96 91 92 93 95 99 100 99 99 99 101 106 109 111 114 116 120 120 125 128 135 137 142 145 143 155 157 165 154 128 102
102 102 99 99 100 97 100 93 101 95 85 92 96 97 97 94 95 98 101 104 106 107 109 108 110 113 117 119 121 124 127 130 132 139 143 142 139 144 156 158 151 129 107 95
99 99 96 98 99 98 96 89 90 95 100 96 97 97 101 101 99 100 104 107 111 113 116 113 116 120 122 123 127 129 132 137 139 142 146 145 141 151 155 165 133 114 97 92
105 101 102 103 101 102 101 102 102 96 98 97 102 102 101 100 101 104 104 107 110 116 121 119 123 123 126 129 130 132 136 145 142 143 143 148 151 158 164 147 123 101 93 83
109 109 108 110 106 103 105 104 108 107 106 106 103 104 108 108 113 114 116 118 120 122 122 125 125 128 130 132 134 136 142 145 143 143 143 150 159 159 156 126 101 90 83 78
114 114 113 114 115 111 108 107 108 111 115 118 114 114 116 115 114 115 116 118 120 123 127 130 131 135 134 135 138 143 145 143 141 142 149 155 161 165 127 99 86 83 76 74
121 118 117 117 115 116 113 111 111 113 112 113 117 119 120 121 122 123 124 127 128 129 132 135 137 139 139 142 145 145 144 141 145 145 159 160 161 131 99 82 82 74 72 69
124 125 124 123 122 121 121 120 119 118 119 120 118 119 122 126 127 129 128 128 131 135 138 141 142 145 145 146 145 142 142 142 151 160 160 163 128 100 92 81 73 70 68 63
127 128 127 126 125 123 123 123 124 126 125 126 129 127 129 130 130 132 135 137 140 142 143 144 144 145 142 143 143 144 150 152 161 157 150 140 99 91 78 77 64 66 62 57
Wind_Direction
229 232 238 243 245 252 261 268 273 280 282 284 288 295 296 292 294 288 288 288 293 293 295 297 298 298 301 307 308 312 313 305 298 296 295 292 290 294 295 290 292 303 294 285
229 234 240 242 245 254 262 267 272 277 282 283 287 290 288 293 296 290 286 290 292 296 296 297 296 298 301 306 307 308 311 305 298 297 300 299 300 298 299 304 301 298 300 302
230 234 240 244 248 256 262 266 270 270 280 283 278 285 287 290 293 290 285 286 288 292 295 298 297 301 302 303 305 309 312 302 297 301 307 308 308 309 311 309 309 298 298 297
233 237 243 246 252 255 261 263 267 269 277 273 276 283 289 288 286 287 284 283 287 292 296 300 300 301 302 302 305 308 311 313 304 305 306 307 310 309 313 313 312 308 307 313
238 242 246 252 254 257 260 265 269 272 273 268 271 277 286 287 286 286 286 287 290 294 298 300 301 303 305 306 306 306 307 310 309 310 309 307 307 311 315 317 317 314 315 314
243 246 250 253 256 258 261 264 268 271 267 264 271 278 282 285 287 290 292 295 298 302 303 301 302 303 304 303 303 304 306 307 309 310 309 307 311 312 314 317 316 317 318 320
247 249 251 253 256 259 261 265 268 264 262 263 271 276 275 282 287 289 290 295 300 303 305 303 301 300 301 301 303 305 305 305 307 309 309 309 312 316 317 316 315 317 314 321
250 251 252 255 257 260 264 267 262 258 262 264 267 275 276 283 285 287 290 294 298 303 303 302 300 299 301 301 303 304 305 304 304 307 309 312 313 316 317 317 317 316 319 320
253 253 255 257 260 263 266 262 260 262 262 265 270 274 275 280 285 287 289 293 297 300 301 298 297 298 300 302 305 305 305 304 304 307 309 312 314 317 316 315 315 316 317 317
251 253 256 260 261 263 261 259 263 266 265 267 270 272 276 280 283 284 286 291 295 297 297 295 297 298 302 304 304 304 303 301 303 305 310 314 317 318 315 316 320 320 321 320
253 252 252 257 258 257 257 259 263 266 268 267 268 272 277 279 280 282 286 290 293 295 296 296 298 300 302 302 303 303 303 303 305 306 312 314 316 315 314 314 318 321 319 317
254 254 255 255 257 258 259 261 263 265 267 269 272 274 277 277 278 281 284 288 290 294 294 296 297 298 299 301 302 303 304 305 306 309 312 314 316 315 315 315 317 320 317 315
257 257 256 256 259 260 260 263 265 267 269 271 273 276 275 278 279 282 284 286 289 291 294 294 295 297 299 300 300 301 303 305 307 309 312 315 315 314 315 315 319 319 318 317
254 257 259 259 259 260 261 263 267 270 272 274 276 277 278 278 280 282 284 287 289 292 291 293 296 298 298 299 299 300 301 306 308 310 311 314 313 315 313 313 320 320 318 319
255 257 257 258 259 260 262 264 267 270 272 274 275 277 278 280 281 282 285 287 289 289 292 294 295 297 298 298 298 301 304 307 309 310 312 312 311 315 314 317 318 318 319 321
254 256 256 258 259 260 262 264 266 269 271 273 274 276 276 276 278 280 283 286 288 289 292 294 295 296 297 298 300 302 305 306 309 310 311 310 311 314 314 316 318 321 320 319
254 257 259 259 261 263 263 266 269 271 271 271 273 274 275 278 280 283 286 287 289 290 292 294 295 296 298 300 302 302 305 308 309 309 310 309 310 312 316 316 320 320 320 318
252 254 256 259 263 264 265 266 267 269 270 273 272 275 278 279 281 282 283 287 289 292 294 294 294 296 298 301 302 303 306 306 307 308 308 309 310 313 318 318 319 319 320 316
254 254 257 258 259 263 265 266 268 266 266 271 269 276 276 279 279 280 283 284 288 291 293 292 294 296 298 300 302 304 303 304 307 308 307 309 312 316 318 319 320 320 318 316
252 254 256 257 259 260 258 259 266 270 272 270 273 271 274 278 279 280 281 281 284 286 288 290 294 295 297 299 300 301 302 304 306 307 308 311 313 315 319 319 319 319 316 315
253 252 254 255 256 258 260 262 264 261 265 273 267 267 271 276 277 278 280 281 284 284 287 290 292 295 295 296 297 300 303 305 306 307 309 311 312 315 316 316 316 316 315 315
250 253 254 257 257 257 261 261 262 261 260 262 267 269 273 276 275 276 276 278 282 283 284 287 289 290 292 295 297 302 303 304 304 308 309 310 314 317 318 318 315 315 316 315
251 252 255 259 261 260 262 264 265 261 263 266 266 268 271 271 272 273 276 279 280 282 283 286 287 291 293 295 298 300 302 302 305 307 308 311 315 314 316 316 314 315 315 315
249 250 253 257 259 260 261 262 265 265 267 268 266 266 267 269 272 274 275 277 278 281 285 287 288 291 293 295 296 298 299 303 303 307 310 312 315 315 314 315 316 315 315 314
250 251 253 255 258 259 260 262 265 266 266 268 269 270 270 271 274 274 277 278 280 281 284 287 288 290 293 295 297 300 299 303 303 308 311 312 313 312 312 313 314 314 314 313
249 250 252 252 255 257 259 260 263 265 266 267 267 270 272 273 275 276 278 280 281 283 286 288 288 291 292 295 298 297 299 303 305 308 309 311 309 311 311 313 314 313 314 313